This is the latest recevied weather packets stored in our database for station/object K0CPM-2. If no packets are shown the sender has not sent any weather packets the latest 10 day(s).
| Time | Temp. | Humidity | Pressure | Rain* | Wind** | Luminosity | Snow |
|---|---|---|---|---|---|---|---|
| 1787814958 | 27.78° C | 90% | 1010.3 hPa | 0 mm | - | - | - |
| 1787814056 | 28.33° C | 90% | 1010.2 hPa | 0 mm | - | - | - |
| 1787813154 | 28.33° C | 90% | 1010.4 hPa | 0 mm | - | - | - |
| 1787812253 | 27.78° C | 90% | 1010.5 hPa | 0 mm | - | - | - |
| 1787811349 | 28.33° C | 90% | 1010.8 hPa | 0 mm | - | - | - |
| 1787810446 | 28.33° C | 89% | 1011.1 hPa | 0 mm | - | - | - |
| 1787809548 | 28.33° C | 89% | 1011 hPa | 0 mm | - | - | - |
| 1787808643 | 28.33° C | 89% | 1011.3 hPa | 0 mm | - | - | - |
| 1787807737 | 28.33° C | 89% | 1011.5 hPa | 0 mm | - | - | - |
| 1787806833 | 28.33° C | 89% | 1011.5 hPa | 0 mm | - | - | - |
| 1787805932 | 28.33° C | 89% | 1011.6 hPa | 0 mm | - | - | - |
| 1787805052 | 28.33° C | 88% | 1011.7 hPa | 0 mm | - | - | - |
| 1787804131 | 28.33° C | 88% | 1011.6 hPa | 0 mm | - | - | - |
| 1787803232 | 28.33° C | 88% | 1011.7 hPa | 0 mm | - | - | - |
| 1787802330 | 28.33° C | 88% | 1011.7 hPa | 0 mm | - | - | - |
| 1787801440 | 28.33° C | 87% | 1011.4 hPa | 0 mm | - | - | - |
| 1787800528 | 28.89° C | 86% | 1011.3 hPa | 0 mm | - | - | - |
| 1787799628 | 28.89° C | 86% | 1011.4 hPa | 0 mm | - | - | - |
| 1787798736 | 28.89° C | 85% | 1011.2 hPa | 0 mm | - | - | - |
| 1787797827 | 28.89° C | 84% | 1011 hPa | 0 mm | - | - | - |
| 1787796925 | 29.44° C | 81% | 1010.9 hPa | 0 mm | - | - | - |
| 1787796025 | 29.44° C | 79% | 1010.5 hPa | 0 mm | - | - | - |
| 1787795125 | 29.44° C | 78% | 1010.5 hPa | 0 mm | - | - | - |
| 1787794224 | 30° C | 78% | 1010.5 hPa | 0 mm | - | - | - |
| 1787793329 | 30° C | 79% | 1010.5 hPa | 0 mm | - | - | - |
* Rain latest hour (hover to see other rain measurements)
** Current wind speed in m/s (hover to see current wind gust speed)